Flight Track Log - Related Links

Times and Time Zones

All times are in EDT time to prevent confusion due to time zone crossing. See the TSU391 flight status page for this flight to view local times or setup timezone preferences in your user account.

Time Position Orientation Groundspeed Altitude Reporting Facility
EDT Latitude Longitude Course Direction KTS MPH feet Rate Location/Type
Fri 09:07:15 AM 26.0793 -97.9573 102° East  Level FlightAware Approximate
Fri 09:08:15 AM 26.1248 -98.0038 105° East  Level FlightAware Approximate
Fri 09:08:50 AM 25.9772 -97.4067 310° West 248 285 4,100  Level Houston Center
Fri 09:09:50 AM 26.0189 -97.4619 283° West 247 284 5,800 1,488 Climbing Houston Center
Fri 09:10:51 AM 26.0364 -97.5436 281° West 252 290 7,100 1,289 Climbing Houston Center
Fri 09:11:51 AM 26.0497 -97.6228 285° West 263 303 8,400 1,289 Climbing Houston Center
Fri 09:12:52 AM 26.0692 -97.7047 278° West 269 310 9,700 1,279 Climbing Houston Center
Fri 09:13:53 AM 26.0800 -97.7864 284° West 264 304 11,000 1,091 Climbing Houston Center
Fri 09:14:53 AM 26.0975 -97.8658 281° West 264 304 11,900 446 Climbing Houston Center
Fri 09:15:54 AM 26.1142 -97.9592 283° West 294 338 11,900  Level Houston Center
Fri 09:17:01 AM 26.1347 -98.0597 281° West 312 359 11,900  Level Houston Center
Fri 09:18:18 AM 26.1544 -98.1717 287° West 309 356 11,900  Level Houston Center
Fri 09:19:08 AM 26.1775 -98.2564 322° Northwest 326 375 11,900 50 Level Houston Center
Fri 09:20:18 AM 26.2536 -98.3233 319° Northwest 301 346 12,000  Climbing Houston Center
Fri 09:21:15 AM 26.3256 -98.3922 318° Northwest 320 368 11,900  Descending Houston Center
Fri 09:22:16 AM 26.3872 -98.4539 323° Northwest 311 358 12,000 49 Climbing Houston Center
Fri 09:23:17 AM 26.4572 -98.5136 320° Northwest 314 361 12,000  Level Houston Center
Fri 09:24:18 AM 26.5250 -98.5781 323° Northwest 315 362 12,000 -50 Level Houston Center
Fri 09:25:18 AM 26.5931 -98.6358 323° Northwest 315 362 11,900 -50 Descending Houston Center
Fri 09:26:18 AM 26.6631 -98.6958 323° Northwest 315 362 11,900  Level Houston Center
Fri 09:27:18 AM 26.7311 -98.7536 325° Northwest 310 357 11,900  Level Houston Center
Fri 09:28:18 AM 26.8011 -98.8092 324° Northwest 310 357 11,900  Level Houston Center
Fri 09:29:18 AM 26.8692 -98.8647 325° Northwest 310 357 11,900  Level Houston Center
Fri 09:30:19 AM 26.9394 -98.9206 323° Northwest 310 357 11,900 -750 Level Houston Center
Fri 09:31:18 AM 27.0072 -98.9783 322° Northwest 310 357 10,400 -1,664 Descending Houston Center
Fri 09:32:18 AM 27.0711 -99.0339 319° Northwest 310 357 8,600 -1,750 Descending Houston Center
Fri 09:33:18 AM 27.1364 -99.0967 318° Northwest 310 357 6,900 -1,750 Descending Houston Center
Fri 09:34:18 AM 27.2017 -99.1617 322° Northwest 310 357 5,100 -1,400 Descending Houston Center
Fri 09:35:18 AM 27.2675 -99.2197 334° Northwest 310 357 4,100 -700 Descending Houston Center
Fri 09:36:18 AM 27.3322 -99.2547 331° Northwest 286 329 3,700 -700 Descending Houston Center
Fri 09:37:18 AM 27.3908 -99.2914 332° Northwest 256 295 2,700 -550 Descending Houston Center
Fri 09:38:18 AM 27.4472 -99.3258 322° Northwest 237 273 2,600 -300 Descending Houston Center
Fri 09:39:18 AM 27.4969 -99.3689 331° Northwest 232 267 2,100 -300 Descending Houston Center
Fri 09:40:18 AM 27.5433 -99.3981 350° North 226 260 2,000 -150 Descending Houston Center
Fri 09:41:18 AM 27.5950 -99.4086 283° West 205 236 1,800 -350 Descending Houston Center
Fri 09:42:18 AM 27.6031 -99.4489 203° Southwest 137 158 1,300 -450 Descending Houston Center
Fri 09:43:18 AM 27.5772 -99.4611 180° South 69 79 900 -400 Descending Houston Center
Fri 09:44:18 AM 27.5481 -99.4614 180° South 75 86 500 -400 Descending Houston Center

Login

Don't have an account? Register now (free) for customized features, flight alerts, and more!